Tracking 19192 objects as of 19-Jun-2018
HD Live streaming from Space Station
objects crossing your sky now

FENGYUN 1C DEB

Track FENGYUN 1C DEB now!
10-day predictions


NORAD ID: 30826
Int'l Code: 1999-025AVL
Perigee: 554.9 km
Apogee: 832.0 km
Inclination: 98.8 °
Period: 98.5 minutes
Semi major axis: 7064 km
RCS: 0.0008 m2 (small)
Launch date: May 10, 1999
Source: People's Republic of China (PRC)
Launch site: Taiyaun Space Center, China (TSC)

Note: This is SATELLITE DEBRIS
aabbcc
Your satellite tracking list
Your tracking list is empty




NASA's NSSDC Master Catalog

Two Line Element Set (TLE):
1 30826U 99025AVL 18168.32024733  .00000173  00000-0  36474-4 0  9991
2 30826  98.8193 109.6827 0196084 187.4505 325.3318 14.62122816601892
Source of the keplerian elements: AFSPC